Location: Gerlach
(40.6516°N, 119.3568°W)
Time: 16:28:52
(UTC-07:00)

A-11 Canister half - Pass Details

Date: 24 February 2024
Orbit: 1525 x 1683 km, 47.3° (Epoch: 22 April)

Event Time Altitude Azimuth Distance (km) Brightness Sun altitude
Exits shadow 05:22:01 18° 253° (WSW) 3,109 10.0 -15.4°
Maximum altitude 05:24:27 20° 234° (SW) 2,993 10.1 -14.9°
Drops below altitude 10° 05:30:44 10° 191° (S) 3,743 10.9 -13.7°
Sets 05:34:54 0° 176° (S) 4,750 11.7 -12.9°
